ONEWEB-0022 (45135 NORAD) Tracking and Keplerian Element Data

This shows tracking and keplerian element data for the satellite.

Feedback or suggestion? Click here.




ElementValue
Catalog45135
NameONEWEB-0022
Epoch Orbit841
Epoch Day88.06156585
Epoch Year2020
RAAN147.2434
Inclination87.5022
Eccentricity0.0020503
Argument of Perigee121.5207
Mean Anonmoly238.8033
Mean Motion15.01097689
Decay Rate-0.00095135
L11 45135U 20008E 20088.06156585 -.00095135 00000-0 -75144-2 0 9990
L22 45135 87.5022 147.2434 0020503 121.5207 238.8033 15.01097689 8413

Live tracking and technical data element details for ONEWEB-0022 (NORAD 45135). ONEWEB-0022 can be tracked NOW for your location showing map with azimuth and elevation plus other details from your city location.

Track the satellite on the map from your city or location and see movement details for azimuth, elevation, latitude, longitude, range, height, and movement on the map or in text.







IsCatalogInMostPopularTable: catalog: 45135, numindb: 10
Update: records affected: 1



GetName: 45135 ONEWEB-0022

Hit Count: updated at: Tue, 31 Mar 2020 13:04:32 GMT